Location: Campillo
(40.8621°N, 4.2488°W)
Time: 10:56:47
(UTC+00:00)

Cosmos 158 Rocket - Pass Details

Date: 11 May 2021
Orbit: 699 x 793 km, 74.0° (Epoch: 13 June)

Event Time Altitude Azimuth Distance (km) Brightness Sun altitude
Rises 21:39:03 0° 346° (NNW) 3,091 8.3 -21.0°
Reaches altitude 10° 21:41:28 10° 353° (N) 2,171 7.2 -21.3°
Maximum altitude 21:46:10 46° 66° (ENE) 946 4.3 -21.8°
Enters shadow 21:46:52 43° 92° (E) 992 4.3 -21.9°
